Location: California Institute of Technology
(34.1357°N, 118.1263°W)
Time: 19:24:26
(UTC-07:00)

Envisat - Visible Passes

Search period start: 16 July 2018 00:00
Search period end: 26 July 2018 00:00
Orbit: 764 x 766 km, 98.2° (Epoch: 16 July)

Date Brightness Start Highest point End Pass type
(mag) Time Alt. Az. Time Alt. Az. Time Alt. Az.
16 Jul 4.0 20:34:56 10° S 20:39:48 48° W 20:44:43 10° NNW visible
17 Jul 6.0 21:41:54 10° W 21:42:31 10° W 21:43:08 10° W visible
18 Jul 5.1 21:01:18 10° SSW 21:05:29 26° W 21:09:41 10° NW visible
19 Jul 3.6 20:23:37 10° S 20:28:37 63° W 20:33:40 10° NNW visible
20 Jul 5.7 21:28:41 10° WSW 21:31:15 14° W 21:33:48 10° WNW visible
21 Jul 4.7 20:49:43 10° SSW 20:54:16 33° W 20:58:50 10° NNW visible
23 Jul 5.6 21:16:34 10° SW 21:19:58 18° W 21:23:25 10° NW visible
24 Jul 4.2 20:38:16 10° S 20:43:04 43° W 20:47:53 10° NNW visible
